TianYi 2 (43155 NORAD) Tracking and Keplerian Element Data

This shows tracking and keplerian element data for the satellite.

Feedback or suggestion? Click here.




ElementValue
Catalog43155
NameTianYi 2
Epoch Orbit4960
Epoch Day347.80317606
Epoch Year2018
RAAN59.0955
Inclination97.5095
Eccentricity0.0016346
Argument of Perigee245.02
Mean Anonmoly253.3612
Mean Motion15.10842976
Decay Rate8.65E-06
L11 43155U 18008A 18347.80317606 .00000865 00000-0 55730-4 0 9992
L22 43155 97.5095 59.0955 0016346 245.0200 253.3612 15.10842976 49605

Live tracking and technical data element details for TianYi 2 (NORAD 43155). TianYi 2 can be tracked NOW for your location showing map with azimuth and elevation plus other details from your city location.

Track the satellite on the map from your city or location and see movement details for azimuth, elevation, latitude, longitude, range, height, and movement on the map or in text.







IsCatalogInMostPopularTable: catalog: 43155, numindb: 133
Update: records affected: 1



GetName: 43155 TianYi 2

Hit Count: updated at: Sat, 15 Dec 2018 13:54:21 GMT